St. George, UT

2:02 AM MST on December 07, 2019 (GMT -0700)
Saint George Municipal

Weather History for KSGU - July, 2019

Change the Weather History Date:

Sunday, July 21, 2019

  Actual Average Record
Temperature  
Mean Temperature 87 °F -  
Max Temperature 102 °F 101 °F 114 °F (1989)
Min Temperature 72 °F 69 °F 55 °F (1940)
Cooling Degree Days 22    
Growing Degree Days 37 (Base 50)    
Moisture  
Dew Point 33 °F    
Average Humidity 14    
Maximum Humidity 24    
Minimum Humidity 9    
Precipitation  
Precipitation 0.00 in - - ()
Sea Level Pressure  
Sea Level Pressure 29.83 in    
Wind  
Wind Speed 5 mph (SE)    
Max Wind Speed 13 mph    
Max Gust Speed -    
Visibility 10 miles    
Events      
Averages and records for this station are not official NWS values.
T = Trace of Precipitation, MM = Missing Value Source: NWS Daily Summary

Daily Weather History Graph

Daily Weather History Graph

Search for Another Location

Airport or City:

Astronomy

Jul. 21, 2019 Rise Set
Actual Time 6:30 AM MDT 8:50 PM MDT
Civil Twilight 6:00 AM MDT 9:19 PM MDT
Nautical Twilight 5:24 AM MDT 9:56 PM MDT
Astronomical Twilight 4:44 AM MDT 10:35 PM MDT
Moon 11:52 PM MDT (7/21) 10:49 AM MDT (7/21)
Length of Visible Light 15h 18m
Length of Day
14h 19m
Waning Gibbous, 80% of the Moon is Illuminated
Jul 21
Waning Gibbous
Jul 24
Last Quarter
Jul 31
New
Aug 7
First Quarter
Aug 15
Full

Hourly Weather History & Observations

Time (MDT) Temp. Dew Point Humidity Pressure Visibility Wind Dir Wind Speed Gust Speed Precip Events Conditions
12:56 AM 82.0 °F 30.9 °F 16% 29.78 in 10.0 mi SSE 5.8 mph - N/A   Clear
1:56 AM 81.0 °F 30.0 °F 16% 29.79 in 10.0 mi ESE 8.1 mph - N/A   Clear
2:56 AM 81.0 °F 30.0 °F 16% 29.80 in 10.0 mi ENE 4.6 mph - N/A   Clear
3:56 AM 79.0 °F 28.9 °F 16% 29.81 in 10.0 mi ESE 10.4 mph - N/A   Clear
4:56 AM 77.0 °F 28.9 °F 17% 29.82 in 10.0 mi SE 3.5 mph - N/A   Clear
5:56 AM 73.9 °F 28.9 °F 19% 29.83 in 10.0 mi East 5.8 mph - N/A   Clear
6:56 AM 72.0 °F 33.1 °F 24% 29.86 in 10.0 mi South 5.8 mph - N/A   Clear
7:56 AM 73.9 °F 34.0 °F 23% 29.88 in 10.0 mi Calm Calm - N/A   Clear
8:56 AM 80.1 °F 33.1 °F 18% 29.90 in 10.0 mi South 3.5 mph - N/A   Clear
9:56 AM 82.9 °F 35.1 °F 18% 29.90 in 10.0 mi WNW 3.5 mph - N/A   Clear
10:56 AM 87.1 °F 34.0 °F 15% 29.90 in 10.0 mi Calm Calm - N/A   Clear
11:56 AM 91.0 °F 33.1 °F 13% 29.89 in 10.0 mi Calm Calm - N/A   Clear
12:56 PM 95.0 °F 33.1 °F 11% 29.88 in 10.0 mi Calm Calm - N/A   Clear
1:56 PM 99.0 °F 32.0 °F 10% 29.86 in 10.0 mi North 8.1 mph - N/A   Clear
2:56 PM 98.1 °F 32.0 °F 10% 29.84 in 10.0 mi Variable 3.5 mph - N/A   Clear
3:56 PM 100.9 °F 32.0 °F 9% 29.82 in 10.0 mi NNE 6.9 mph - N/A   Clear
4:56 PM 102.0 °F 32.0 °F 9% 29.80 in 10.0 mi NNW 5.8 mph - N/A   Clear
5:56 PM 100.9 °F 32.0 °F 9% 29.79 in 10.0 mi Variable 3.5 mph - N/A   Clear
6:56 PM 102.0 °F 33.1 °F 9% 29.78 in 10.0 mi West 12.7 mph - N/A   Clear
7:56 PM 100.0 °F 36.0 °F 11% 29.79 in 10.0 mi West 11.5 mph - N/A   Clear
8:56 PM 97.0 °F 37.9 °F 13% 29.79 in 10.0 mi WNW 4.6 mph - N/A   Clear
9:56 PM 93.0 °F 36.0 °F 13% 29.81 in 10.0 mi Calm Calm - N/A   Clear
10:56 PM 89.1 °F 36.0 °F 15% 29.83 in 10.0 mi South 4.6 mph - N/A   Clear
11:56 PM 88.0 °F 36.0 °F 16% 29.83 in 10.0 mi SE 3.5 mph - N/A   Clear